timestamp,surface_pressure_avg,surface_temp_avg,battery_voltage,lat,long
2019-05-01 00:00:00+00:00,269.018,2.75,12.97,47.84626,-54.09684
2019-05-01 00:10:00+00:00,265.4664,2.79,12.89,47.84626,-54.09684
2019-05-01 00:20:00+00:00,258.5414,2.8,12.97,47.84626,-54.09684
2019-05-01 00:30:00+00:00,255.2148,2.78,12.97,47.84626,-54.09684
2019-05-01 00:40:00+00:00,253.3981,2.7,12.97,47.84626,-54.09684
2019-05-01 00:50:00+00:00,251.0131,2.7,12.97,47.84626,-54.09684
2019-05-01 01:00:00+00:00,243.9547,2.67,12.89,47.84626,-54.09684
2019-05-01 01:10:00+00:00,240.2098,2.67,12.81,47.84626,-54.09684
2019-05-01 01:20:00+00:00,241.1514,2.6,12.89,47.84626,-54.09684
2019-05-01 01:30:00+00:00,235.2697,2.61,12.89,47.84626,-54.09684
2019-05-01 01:40:00+00:00,230.0164,2.69,12.89,47.84626,-54.09684
2019-05-01 01:50:00+00:00,230.6431,2.6,12.97,47.84626,-54.09684
2019-05-01 02:00:00+00:00,231.8298,2.52,12.81,47.84626,-54.09684
2019-05-01 02:10:00+00:00,227.8648,2.5,12.81,47.84626,-54.09684
2019-05-01 02:20:00+00:00,222.7081,2.52,12.89,47.84626,-54.09684
2019-05-01 02:30:00+00:00,220.9281,2.58,12.89,47.84626,-54.09684
2019-05-01 02:40:00+00:00,220.2781,2.59,12.89,47.84626,-54.09684
2019-05-01 02:50:00+00:00,218.7198,2.59,12.89,47.84626,-54.09684
2019-05-01 03:00:00+00:00,219.5915,2.5,12.81,47.84626,-54.09684
2019-05-01 03:10:00+00:00,220.9681,2.5,12.73,47.84626,-54.09684
2019-05-01 03:20:00+00:00,218.3864,2.5,12.81,47.84626,-54.09684
2019-05-01 03:30:00+00:00,217.1281,2.5,12.89,47.84626,-54.09684
2019-05-01 03:40:00+00:00,217.0181,2.5,12.89,47.84626,-54.09684
2019-05-01 03:50:00+00:00,218.3998,2.56,12.89,47.84626,-54.09684
2019-05-01 04:00:00+00:00,219.3931,2.6,12.81,47.84626,-54.09684
2019-05-01 04:10:00+00:00,222.0664,2.6,12.73,47.84626,-54.09684
2019-05-01 04:20:00+00:00,224.2564,2.6,12.81,47.84626,-54.09684
2019-05-01 04:30:00+00:00,224.3181,2.5,12.81,47.84626,-54.09684
2019-05-01 04:40:00+00:00,225.3281,2.5,12.89,47.84626,-54.09684
2019-05-01 04:50:00+00:00,231.9381,2.5,12.89,47.84626,-54.09684
2019-05-01 05:00:00+00:00,236.6764,2.5,12.81,47.84626,-54.09684
2019-05-01 05:10:00+00:00,235.3948,2.5,12.73,47.84626,-54.09684
2019-05-01 05:20:00+00:00,241.4597,2.5,12.81,47.84626,-54.09684
2019-05-01 05:30:00+00:00,252.3014,2.5,12.81,47.84626,-54.09684
2019-05-01 05:40:00+00:00,253.8698,2.5,12.81,47.84626,-54.09684
2019-05-01 05:50:00+00:00,253.1914,2.5,12.89,47.84626,-54.09684
2019-05-01 06:00:00+00:00,260.2414,2.5,12.81,47.84626,-54.09684
2019-05-01 06:10:00+00:00,265.9481,2.49,12.73,47.84626,-54.09684
2019-05-01 06:20:00+00:00,264.3398,2.48,12.81,47.84626,-54.09684
2019-05-01 06:30:00+00:00,266.9031,2.49,12.81,47.84626,-54.09684
2019-05-01 06:40:00+00:00,276.7147,2.4,12.81,47.84626,-54.09684
2019-05-01 06:50:00+00:00,282.6931,2.4,12.81,47.84626,-54.09684
2019-05-01 07:00:00+00:00,283.333,2.4,12.73,47.84626,-54.09684
2019-05-01 07:10:00+00:00,287.5864,2.41,12.65,47.84626,-54.09684
2019-05-01 07:20:00+00:00,297.1913,2.43,12.73,47.84626,-54.09684
2019-05-01 07:30:00+00:00,300.6564,2.4,12.73,47.84626,-54.09684
2019-05-01 07:40:00+00:00,301.5797,2.4,12.81,47.84626,-54.09684
2019-05-01 07:50:00+00:00,308.2679,2.4,12.81,47.84626,-54.09684
2019-05-01 08:00:00+00:00,313.6713,2.4,12.73,47.84626,-54.09684
2019-05-01 08:10:00+00:00,312.6513,2.39,12.65,47.84626,-54.09684
2019-05-01 08:20:00+00:00,315.6946,2.3,12.73,47.84626,-54.09684
2019-05-01 08:30:00+00:00,326.7013,2.2,12.73,47.84626,-54.09684
2019-05-01 08:40:00+00:00,332.543,2.1,12.73,47.84626,-54.09684
2019-05-01 08:50:00+00:00,332.3929,2.03,12.81,47.84626,-54.09684
2019-05-01 09:00:00+00:00,334.3196,2.0,12.73,47.84626,-54.09684
2019-05-01 09:10:00+00:00,340.1746,1.9,12.65,47.84626,-54.09684
2019-05-01 09:20:00+00:00,342.538,1.9,12.81,47.84626,-54.09684
2019-05-01 09:30:00+00:00,338.8646,1.95,12.81,47.84626,-54.09684
2019-05-01 09:40:00+00:00,334.4846,2.0,12.89,47.84626,-54.09684
2019-05-01 09:50:00+00:00,336.5212,2.1,12.89,47.84626,-54.09684
2019-05-01 10:00:00+00:00,337.5663,2.22,12.81,47.84626,-54.09684
2019-05-01 10:10:00+00:00,332.2713,2.3,12.73,47.84626,-54.09684
2019-05-01 10:20:00+00:00,325.0814,2.3,12.81,47.84626,-54.09684
2019-05-01 10:30:00+00:00,327.563,2.3,12.89,47.84626,-54.09684
2019-05-01 10:40:00+00:00,328.0513,2.3,12.97,47.84626,-54.09684
2019-05-01 10:50:00+00:00,322.688,2.27,13.05,47.84626,-54.09684
2019-05-01 11:00:00+00:00,315.688,2.28,13.05,47.84626,-54.09684
2019-05-01 11:10:00+00:00,317.093,2.2,13.13,47.84626,-54.09684
2019-05-01 11:20:00+00:00,316.483,2.13,13.37,47.84626,-54.09684
2019-05-01 11:30:00+00:00,307.6547,2.16,13.53,47.84626,-54.09684
2019-05-01 11:40:00+00:00,301.7463,2.2,13.68,47.84626,-54.09684
2019-05-01 11:50:00+00:00,297.6897,2.13,14.48,47.84626,-54.09684
2019-05-01 12:00:00+00:00,292.8781,2.11,14.24,47.84626,-54.09684
2019-05-01 12:10:00+00:00,284.9781,2.2,14.08,47.84626,-54.09684
2019-05-01 12:20:00+00:00,279.3947,2.2,14.08,47.84626,-54.09684
2019-05-01 12:30:00+00:00,274.3831,2.3,14.08,47.84626,-54.09684
2019-05-01 12:40:00+00:00,268.1481,2.1,14.24,47.84626,-54.09684
2019-05-01 12:50:00+00:00,263.7064,2.07,14.24,47.84626,-54.09684
2019-05-01 13:00:00+00:00,258.0197,2.11,14.48,47.84626,-54.09684
2019-05-01 13:10:00+00:00,254.673,2.2,14.72,47.84626,-54.09684
2019-05-01 13:20:00+00:00,249.8664,2.2,14.64,47.84626,-54.09684
2019-05-01 13:30:00+00:00,245.5515,2.2,14.8,47.84626,-54.09684
2019-05-01 13:40:00+00:00,236.7064,2.36,14.96,47.84626,-54.09684
2019-05-01 13:50:00+00:00,231.6947,2.4,14.8,47.84626,-54.09684
2019-05-01 14:00:00+00:00,230.798,2.2,14.8,47.84626,-54.09684
2019-05-01 14:10:00+00:00,227.3698,2.28,14.72,47.84626,-54.09684
2019-05-01 14:20:00+00:00,221.5215,2.34,14.72,47.84626,-54.09684
2019-05-01 14:30:00+00:00,217.4915,2.3,14.64,47.84626,-54.09684
2019-05-01 14:40:00+00:00,216.2781,2.28,14.64,47.84626,-54.09684
2019-05-01 14:50:00+00:00,214.2564,2.3,15.04,47.84626,-54.09684
2019-05-01 15:00:00+00:00,211.5981,2.3,14.72,47.84626,-54.09684
2019-05-01 15:10:00+00:00,211.3165,2.34,15.27,47.84626,-54.09684
2019-05-01 15:20:00+00:00,210.2548,2.37,14.88,47.84626,-54.09684
2019-05-01 15:30:00+00:00,209.8331,2.38,15.2,47.84626,-54.09684
2019-05-01 15:40:00+00:00,210.6998,2.3,14.96,47.84626,-54.09684
2019-05-01 15:50:00+00:00,212.1248,2.3,14.96,47.84626,-54.09684
2019-05-01 16:00:00+00:00,212.2848,2.3,14.8,47.84626,-54.09684
2019-05-01 16:10:00+00:00,210.3164,2.23,14.8,47.84626,-54.09684
2019-05-01 16:20:00+00:00,210.7831,2.2,14.8,47.84626,-54.09684
2019-05-01 16:30:00+00:00,212.5048,2.1,14.8,47.84626,-54.09684
2019-05-01 16:40:00+00:00,215.5598,2.0,14.64,47.84626,-54.09684
2019-05-01 16:50:00+00:00,217.7982,2.0,14.64,47.84626,-54.09684
2019-05-01 17:00:00+00:00,221.2298,2.0,14.56,47.84626,-54.09684
2019-05-01 17:20:00+00:00,224.4632,2.08,14.56,47.84626,-54.09684
2019-05-01 17:30:00+00:00,230.2165,2.0,14.48,47.84626,-54.09684
2019-05-01 17:40:00+00:00,234.6781,2.0,14.48,47.84626,-54.09684
2019-05-01 17:50:00+00:00,237.1598,2.09,14.4,47.84626,-54.09684
2019-05-01 18:00:00+00:00,239.1464,2.1,14.32,47.84626,-54.09684
2019-05-01 18:10:00+00:00,247.4231,2.16,14.16,47.84626,-54.09684
2019-05-01 18:20:00+00:00,254.6664,2.0,14.24,47.84626,-54.09684
2019-05-01 18:30:00+00:00,259.0914,2.0,14.32,47.84626,-54.09684
2019-05-01 18:40:00+00:00,261.5014,2.0,14.32,47.84626,-54.09684
2019-05-01 18:50:00+00:00,265.4414,2.0,14.32,47.84626,-54.09684
2019-05-01 19:00:00+00:00,271.7897,2.06,14.16,47.84626,-54.09684
2019-05-01 19:10:00+00:00,279.3364,2.12,14.0,47.84626,-54.09684
2019-05-01 19:20:00+00:00,283.123,2.0,14.08,47.84626,-54.09684
2019-05-01 19:30:00+00:00,287.4948,1.9,14.08,47.84626,-54.09684
2019-05-01 19:40:00+00:00,288.813,1.9,14.08,47.84626,-54.09684
2019-05-01 19:50:00+00:00,289.488,2.0,14.08,47.84626,-54.09684
2019-05-01 20:00:00+00:00,296.123,1.8,14.0,47.84626,-54.09684
2019-05-01 20:10:00+00:00,305.6563,1.96,13.84,47.84626,-54.09684
2019-05-01 20:20:00+00:00,307.913,2.0,13.92,47.84626,-54.09684
2019-05-01 20:30:00+00:00,306.6331,1.7,13.84,47.84626,-54.09684
2019-05-01 20:40:00+00:00,313.3497,1.4,13.84,47.84626,-54.09684
2019-05-01 20:50:00+00:00,319.913,1.23,13.84,47.84626,-54.09684
2019-05-01 21:00:00+00:00,320.2913,1.3,13.76,47.84626,-54.09684
2019-05-01 21:10:00+00:00,325.043,1.11,13.68,47.84626,-54.09684
2019-05-01 21:20:00+00:00,332.7663,1.13,13.68,47.84626,-54.09684
2019-05-01 21:30:00+00:00,334.8397,1.2,13.68,47.84626,-54.09684
2019-05-01 21:40:00+00:00,332.653,1.1,13.6,47.84626,-54.09684
2019-05-01 21:50:00+00:00,337.753,1.1,13.6,47.84626,-54.09684
2019-05-01 22:00:00+00:00,339.288,1.1,13.53,47.84626,-54.09684
2019-05-01 22:10:00+00:00,332.7513,1.16,13.37,47.84626,-54.09684
2019-05-01 22:20:00+00:00,329.9597,1.27,13.29,47.84626,-54.09684
2019-05-01 22:30:00+00:00,328.8514,1.32,13.29,47.84626,-54.09684
2019-05-01 22:40:00+00:00,327.9014,1.49,13.29,47.84626,-54.09684
2019-05-01 22:50:00+00:00,322.5046,1.6,13.29,47.84626,-54.09684
2019-05-01 23:00:00+00:00,319.9013,1.6,13.13,47.84626,-54.09684
2019-05-01 23:10:00+00:00,319.7447,1.61,13.05,47.84626,-54.09684
2019-05-01 23:20:00+00:00,316.493,1.66,13.05,47.84626,-54.09684
2019-05-01 23:30:00+00:00,311.848,1.74,13.05,47.84626,-54.09684
2019-05-01 23:40:00+00:00,307.818,1.94,13.05,47.84626,-54.09684
2019-05-01 23:50:00+00:00,300.5146,2.09,13.05,47.84626,-54.09684
